| time (UTC) | temp F | wind direction | speed knots | gust knots | rain 1hr in | rain 24hr in | rain mn in | humidity % | barometer mb |
| 20260902222735 | 96 | 219 | 2.6 | 8.7 | 0.00 | 0.00 | 0.00 | 22 | 1016.5 |
| 20260902221721 | 95 | 181 | 4.3 | 14.8 | 0.00 | 0.00 | 0.00 | 23 | 1016.8 |
| 20260902220727 | 94 | 266 | 5.2 | 8.7 | 0.00 | 0.00 | 0.00 | 23 | 1016.7 |
| 20260902215735 | 93 | 300 | 7.8 | 12.2 | 0.00 | 0.00 | 0.00 | 24 | 1017.0 |
| 20260902214729 | 94 | 273 | 3.5 | 10.4 | 0.00 | 0.00 | 0.00 | 24 | 1016.9 |
| 20260902213736 | 95 | 252 | 6.1 | 13.0 | 0.00 | 0.00 | 0.00 | 23 | 1017.3 |
| 20260902212726 | 95 | 293 | 5.2 | 9.6 | 0.00 | 0.00 | 0.00 | 22 | 1017.2 |
| 20260902211718 | 95 | 229 | 2.6 | 13.0 | 0.00 | 0.00 | 0.00 | 22 | 1017.5 |
| 20260902210723 | 96 | 202 | 2.6 | 7.8 | 0.00 | 0.00 | 0.00 | 22 | 1017.5 |
| 20260902205718 | 96 | 192 | 7.0 | 9.6 | 0.00 | 0.00 | 0.00 | 22 | 1017.8 |
| 20260902204732 | 96 | 184 | 5.2 | 9.6 | 0.00 | 0.00 | 0.00 | 22 | 1018.0 |
| 20260902202720 | 96 | 231 | 3.5 | 10.4 | 0.00 | 0.00 | 0.00 | 23 | 1018.5 |
| 20260902201731 | 95 | 207 | 4.3 | 9.6 | 0.00 | 0.00 | 0.00 | 23 | 1018.7 |
| 20260902200724 | 95 | 225 | 7.0 | 11.3 | 0.00 | 0.00 | 0.00 | 24 | 1018.8 |
| 20260902195718 | 95 | 236 | 4.3 | 13.0 | 0.00 | 0.00 | 0.00 | 23 | 1019.0 |
| 20260902194725 | 94 | 350 | 2.6 | 9.6 | 0.00 | 0.00 | 0.00 | 24 | 1019.0 |
| 20260902192724 | 93 | 329 | 0.9 | 9.6 | 0.00 | 0.00 | 0.00 | 24 | 1019.2 |
| 20260902191731 | 93 | 234 | 6.1 | 8.7 | 0.00 | 0.00 | 0.00 | 26 | 1019.5 |
| 20260902190722 | 92 | 213 | 4.3 | 9.6 | 0.00 | 0.00 | 0.00 | 26 | 1019.5 |
| 20260902185731 | 93 | 267 | 6.1 | 11.3 | 0.00 | 0.00 | 0.00 | 25 | 1019.7 |
| 20260902184722 | 93 | 246 | 5.2 | 8.7 | 0.00 | 0.00 | 0.00 | 26 | 1019.8 |
| 20260902183718 | 93 | 197 | 5.2 | 8.7 | 0.00 | 0.00 | 0.00 | 27 | 1020.0 |
| 20260902182730 | 92 | 279 | 2.6 | 9.6 | 0.00 | 0.00 | 0.00 | 27 | 1020.1 |
| 20260902181720 | 92 | 200 | 2.6 | 9.6 | 0.00 | 0.00 | 0.00 | 27 | 1020.3 |
| 20260902180712 | 91 | 244 | 2.6 | 9.6 | 0.00 | 0.00 | 0.00 | 28 | 1020.4 |
| 20260902175731 | 91 | 195 | 4.3 | 8.7 | 0.00 | 0.00 | 0.00 | 29 | 1020.5 |
| 20260902174726 | 90 | 261 | 3.5 | 8.7 | 0.00 | 0.00 | 0.00 | 30 | 1020.6 |
| 20260902173722 | 89 | 238 | 5.2 | 9.6 | 0.00 | 0.00 | 0.00 | 31 | 1020.7 |
| 20260902172718 | 89 | 234 | 4.3 | 11.3 | 0.00 | 0.00 | 0.00 | 31 | 1020.8 |
| 20260902171711 | 89 | 238 | 4.3 | 11.3 | 0.00 | 0.00 | 0.00 | 31 | 1020.9 |
| 20260902170721 | 88 | 234 | 3.5 | 10.4 | 0.00 | 0.00 | 0.00 | 32 | 1020.9 |
| 20260902165719 | 88 | 174 | 7.0 | 12.2 | 0.00 | 0.00 | 0.00 | 32 | 1020.9 |
| 20260902164712 | 87 | 163 | 6.1 | 11.3 | 0.00 | 0.00 | 0.00 | 33 | 1020.9 |
| 20260902163720 | 86 | 173 | 7.0 | 12.2 | 0.00 | 0.00 | 0.00 | 33 | 1021.0 |
| 20260902162712 | 85 | 190 | 3.5 | 7.8 | 0.00 | 0.00 | 0.00 | 34 | 1020.9 |
| 20260902161709 | 84 | 235 | 6.1 | 9.6 | 0.00 | 0.00 | 0.00 | 35 | 1020.8 |
| 20260902160714 | 83 | 192 | 4.3 | 7.8 | 0.00 | 0.00 | 0.00 | 37 | 1020.9 |
| 20260902155726 | 82 | 206 | 5.2 | 8.7 | 0.00 | 0.00 | 0.00 | 38 | 1020.8 |
| 20260902154725 | 82 | 241 | 4.3 | 8.7 | 0.00 | 0.00 | 0.00 | 38 | 1020.9 |
| 20260902153720 | 82 | 205 | 6.1 | 9.6 | 0.00 | 0.00 | 0.00 | 38 | 1020.9 |
| 20260902152726 | 81 | 178 | 4.3 | 9.6 | 0.00 | 0.00 | 0.00 | 38 | 1020.9 |
| 20260902151723 | 82 | 240 | 6.1 | 8.7 | 0.00 | 0.00 | 0.00 | 38 | 1020.8 |
| 20260902150715 | 81 | 208 | 4.3 | 8.7 | 0.00 | 0.00 | 0.00 | 37 | 1020.8 |
| 20260902145725 | 81 | 181 | 3.5 | 8.7 | 0.00 | 0.00 | 0.00 | 38 | 1020.8 |
| 20260902143711 | 79 | 189 | 5.2 | 8.7 | 0.00 | 0.00 | 0.00 | 40 | 1020.8 |
| 20260902142721 | 78 | 165 | 5.2 | 8.7 | 0.00 | 0.00 | 0.00 | 41 | 1020.8 |
| 20260902141709 | 77 | 189 | 4.3 | 10.4 | 0.00 | 0.00 | 0.00 | 42 | 1020.7 |
| 20260902140723 | 76 | 159 | 4.3 | 7.8 | 0.00 | 0.00 | 0.00 | 43 | 1020.7 |
| 20260902135711 | 75 | 178 | 3.5 | 7.0 | 0.00 | 0.00 | 0.00 | 44 | 1020.6 |
| 20260902134718 | 75 | 188 | 4.3 | 7.0 | 0.00 | 0.00 | 0.00 | 45 | 1020.6 |
| 20260902133710 | 74 | 178 | 2.6 | 7.8 | 0.00 | 0.00 | 0.00 | 45 | 1020.4 |
| 20260902131718 | 72 | 207 | 3.5 | 5.2 | 0.00 | 0.00 | 0.00 | 46 | 1020.2 |
| 20260902130715 | 72 | 165 | 3.5 | 6.1 | 0.00 | 0.00 | 0.00 | 45 | 1020.1 |
| 20260902125706 | 73 | 165 | 2.6 | 5.2 | 0.00 | 0.00 | 0.00 | 45 | 1019.9 |
| 20260902124715 | 73 | 175 | 3.5 | 5.2 | 0.00 | 0.00 | 0.00 | 46 | 1019.8 |
| 20260902123712 | 73 | 159 | 2.6 | 3.5 | 0.00 | 0.00 | 0.00 | 46 | 1019.8 |
| 20260902122705 | 73 | 195 | 1.7 | 3.5 | 0.00 | 0.00 | 0.00 | 46 | 1019.7 |
| 20260902121722 | 73 | 182 | 2.6 | 4.3 | 0.00 | 0.00 | 0.00 | 46 | 1019.7 |
| 20260902120717 | 72 | 183 | 2.6 | 5.2 | 0.00 | 0.00 | 0.00 | 46 | 1019.6 |
| 20260902115710 | 72 | 176 | 2.6 | 4.3 | 0.00 | 0.00 | 0.00 | 46 | 1019.6 |
| 20260902113721 | 73 | 162 | 0.9 | 5.2 | 0.00 | 0.00 | 0.00 | 46 | 1019.4 |
| 20260902111719 | 73 | 180 | 3.5 | 5.2 | 0.00 | 0.00 | 0.00 | 45 | 1019.5 |
| 20260902110708 | 73 | 165 | 2.6 | 4.3 | 0.00 | 0.00 | 0.00 | 45 | 1019.3 |
| 20260902104716 | 73 | 162 | 2.6 | 5.2 | 0.00 | 0.00 | 0.00 | 45 | 1019.5 |
| 20260902103715 | 74 | 171 | 2.6 | 4.3 | 0.00 | 0.00 | 0.00 | 44 | 1019.5 |
| 20260902102713 | 74 | 167 | 0.9 | 3.5 | 0.00 | 0.00 | 0.00 | 43 | 1019.5 |
| 20260902101707 | 74 | 175 | 1.7 | 3.5 | 0.00 | 0.00 | 0.00 | 44 | 1019.4 |
| 20260902100718 | 74 | 150 | 0.9 | 5.2 | 0.00 | 0.00 | 0.00 | 44 | 1019.3 |
| 20260902095713 | 74 | 188 | 1.7 | 6.1 | 0.00 | 0.00 | 0.00 | 44 | 1019.3 |
| 20260902094713 | 74 | 198 | 1.7 | 3.5 | 0.00 | 0.00 | 0.00 | 44 | 1019.4 |
| 20260902093707 | 74 | 182 | 1.7 | 3.5 | 0.00 | 0.00 | 0.00 | 43 | 1019.3 |
| 20260902092706 | 74 | 150 | 1.7 | 3.5 | 0.00 | 0.00 | 0.00 | 43 | 1019.3 |
| 20260902091703 | 74 | 136 | 2.6 | 3.5 | 0.00 | 0.00 | 0.00 | 43 | 1019.3 |
| 20260902085709 | 75 | 139 | 1.7 | 1.7 | 0.00 | 0.00 | 0.00 | 43 | 1019.4 |
| 20260902084706 | 75 | 134 | 0.9 | 2.6 | 0.00 | 0.00 | 0.00 | 42 | 1019.4 |
| 20260902081701 | 76 | 131 | 0.9 | 2.6 | 0.00 | 0.00 | 0.00 | 41 | 1019.7 |
| 20260902080720 | 77 | 144 | 0.9 | 2.6 | 0.00 | 0.00 | 0.00 | 40 | 1019.7 |
| 20260902075719 | 77 | 83 | 1.7 | 2.6 | 0.00 | 0.00 | 0.00 | 40 | 1019.7 |
| 20260902073719 | 77 | 140 | 0.9 | 3.5 | 0.00 | 0.00 | 0.00 | 40 | 1019.7 |
| 20260902072710 | 77 | 161 | 2.6 | 5.2 | 0.00 | 0.00 | 0.00 | 41 | 1019.7 |
| 20260902071704 | 77 | 111 | 2.6 | 6.1 | 0.00 | 0.00 | 0.00 | 41 | 1019.7 |
| 20260902070719 | 77 | 153 | 1.7 | 3.5 | 0.00 | 0.00 | 0.00 | 40 | 1019.8 |
| 20260902064716 | 77 | 132 | 1.7 | 4.3 | 0.00 | 0.00 | 0.00 | 41 | 1019.7 |
| 20260902062705 | 78 | 136 | 0.9 | 1.7 | 0.00 | 0.00 | 0.00 | 38 | 1019.7 |
| 20260902060713 | 79 | 140 | 0.9 | 2.6 | 0.00 | 0.00 | 0.00 | 37 | 1019.6 |
| 20260902055701 | 80 | 163 | 0.9 | 2.6 | 0.00 | 0.00 | 0.00 | 37 | 1019.7 |
| 20260902054718 | 80 | 173 | 0.0 | 2.6 | 0.00 | 0.00 | 0.00 | 37 | 1019.7 |
| 20260902053713 | 80 | 178 | 1.7 | 3.5 | 0.00 | 0.00 | 0.00 | 37 | 1019.6 |
| 20260902051703 | 80 | 207 | 1.7 | 5.2 | 0.00 | 0.00 | 0.00 | 38 | 1019.8 |
| 20260902050712 | 79 | 188 | 2.6 | 6.1 | 0.00 | 0.00 | 0.00 | 38 | 1019.8 |
| 20260902044659 | 79 | 136 | 0.9 | 2.6 | 0.00 | 0.00 | 0.00 | 37 | 1019.8 |
| 20260902043713 | 79 | 121 | 2.6 | 3.5 | 0.00 | 0.00 | 0.00 | 37 | 1019.5 |
| 20260902041702 | 80 | 136 | 1.7 | 3.5 | 0.00 | 0.00 | 0.00 | 35 | 1019.4 |
| 20260902040713 | 80 | 152 | 1.7 | 4.3 | 0.00 | 0.00 | 0.00 | 35 | 1019.4 |
| 20260902035707 | 81 | 138 | 2.6 | 3.5 | 0.00 | 0.00 | 0.00 | 33 | 1019.5 |
| 20260902034658 | 82 | 153 | 0.9 | 1.7 | 0.00 | 0.00 | 0.00 | 32 | 1019.4 |
| 20260902033715 | 83 | 159 | 0.9 | 1.7 | 0.00 | 0.00 | 0.00 | 32 | 1019.2 |
| 20260902032707 | 84 | 161 | 0.0 | 1.7 | 0.00 | 0.00 | 0.00 | 31 | 1019.1 |
| 20260902031659 | 84 | 165 | 0.9 | 1.7 | 0.00 | 0.00 | 0.00 | 31 | 1019.0 |
| 20260902030658 | 85 | 165 | 0.9 | 1.7 | 0.00 | 0.00 | 0.00 | 30 | 1018.7 |
| 20260902025708 | 85 | 165 | 0.0 | 1.7 | 0.00 | 0.00 | 0.00 | 30 | 1018.6 |
| 20260902024702 | 86 | 165 | 1.7 | 1.7 | 0.00 | 0.00 | 0.00 | 29 | 1018.5 |
| 20260902023700 | 86 | 360 | 0.9 | 1.7 | 0.00 | 0.00 | 0.00 | 29 | 1018.3 |
| 20260902022708 | 86 | 111 | 0.9 | 2.6 | 0.00 | 0.00 | 0.00 | 29 | 1018.1 |
| 20260902021705 | 86 | 111 | 0.0 | 1.7 | 0.00 | 0.00 | 0.00 | 28 | 1018.0 |
| 20260902020657 | 87 | 184 | 1.7 | 2.6 | 0.00 | 0.00 | 0.00 | 28 | 1018.0 |
| 20260902015711 | 87 | 183 | 1.7 | 2.6 | 0.00 | 0.00 | 0.00 | 28 | 1017.9 |
| 20260902014659 | 88 | 216 | 1.7 | 1.7 | 0.00 | 0.00 | 0.00 | 27 | 1017.6 |
| 20260902013701 | 88 | 232 | 1.7 | 3.5 | 0.00 | 0.00 | 0.00 | 27 | 1017.5 |
| 20260902011655 | 89 | 223 | 2.6 | 5.2 | 0.00 | 0.00 | 0.00 | 26 | 1017.6 |
| 20260902010710 | 89 | 247 | 2.6 | 7.0 | 0.00 | 0.00 | 0.00 | 26 | 1017.5 |
| 20260902005703 | 90 | 223 | 3.5 | 7.8 | 0.00 | 0.00 | 0.00 | 26 | 1017.6 |
| 20260902004703 | 90 | 237 | 1.7 | 5.2 | 0.00 | 0.00 | 0.00 | 26 | 1017.5 |
| 20260902003657 | 90 | 216 | 2.6 | 7.8 | 0.00 | 0.00 | 0.00 | 26 | 1017.5 |
| 20260902002708 | 90 | 264 | 5.2 | 9.6 | 0.00 | 0.00 | 0.00 | 26 | 1017.6 |
| 20260902001704 | 90 | 214 | 2.6 | 9.6 | 0.00 | 0.00 | 0.00 | 27 | 1017.6 |
| 20260902000657 | 91 | 242 | 5.2 | 10.4 | 0.00 | 0.00 | 0.00 | 26 | 1017.7 |
| 20260901234659 | 92 | 288 | 3.5 | 10.4 | 0.00 | 0.00 | 0.00 | 26 | 1017.7 |
| 20260901233656 | 92 | 246 | 5.2 | 7.8 | 0.00 | 0.00 | 0.00 | 26 | 1017.7 |
| 20260901232706 | 92 | 242 | 3.5 | 7.8 | 0.00 | 0.00 | 0.00 | 26 | 1017.6 |
| 20260901231659 | 92 | 238 | 6.1 | 9.6 | 0.00 | 0.00 | 0.00 | 27 | 1017.6 |
| 20260901230708 | 91 | 248 | 6.1 | 11.3 | 0.00 | 0.00 | 0.00 | 27 | 1017.5 |
| 20260901225701 | 91 | 243 | 6.1 | 9.6 | 0.00 | 0.00 | 0.00 | 27 | 1017.6 |
| 20260901224652 | 91 | 306 | 3.5 | 8.7 | 0.00 | 0.00 | 0.00 | 26 | 1017.5 |
| 20260901223708 | 91 | 220 | 2.6 | 10.4 | 0.00 | 0.00 | 0.00 | 26 | 1017.6 |